When you browse on this site, cookies collect data to enhance your experience and personalize the content and advertising you see.
Visit our Privacy Policy to learn more. By continuing to use the site, you agree to this use of cookies and data.
  • In Hungary
  • List of Countries
  • For 7 days
  • Water Temperature
  • Weather Map
  • News
  • Weather Widgets
  • user-avatar
    Login

    Hourly Weather Polyaki

    Today, 18 September, Wednesday

    Time Temperature Precipitation Wind Pressure Humidity
    00:00 +5°C° 0 mm 0 mps 741 mmHg 96%
    01:00 +4°C° 0 mm 0 mps 741 mmHg 96%
    02:00 +4°C° 0 mm 0 mps 741 mmHg 96%
    03:00 +4°C° 0 mm 0 mps 741 mmHg 97%
    04:00 +4°C° 0 mm 0 mps 741 mmHg 97%
    05:00 +4°C° 0 mm 0 mps 741 mmHg 97%
    06:00 +6°C° 0 mm 1 mps 741 mmHg 96%
    07:00 +7°C° 0 mm 1 mps 742 mmHg 94%
    08:00 +7°C° 0 mm 2 mps 742 mmHg 94%
    09:00 +8°C° 0 mm 2 mps 743 mmHg 88%
    10:00 +9°C° 0 mm 2 mps 743 mmHg 83%
    11:00 +10°C° 0 mm 2 mps 743 mmHg 78%
    12:00 +12°C° 0.1 mm 2 mps 744 mmHg 73%
    13:00 +13°C° 0.1 mm 2 mps 744 mmHg 69%
    14:00 +12°C° 0.1 mm 3 mps 744 mmHg 64%
    15:00 +12°C° 0.4 mm 3 mps 745 mmHg 71%
    16:00 +11°C° 0.4 mm 3 mps 745 mmHg 79%
    17:00 +10°C° 0.4 mm 2 mps 746 mmHg 86%
    18:00 +9°C° 0.1 mm 3 mps 746 mmHg 89%
    19:00 +8°C° 0.1 mm 3 mps 747 mmHg 92%
    20:00 +7°C° 0.1 mm 3 mps 747 mmHg 95%
    21:00 +7°C° 0 mm 2 mps 748 mmHg 96%
    22:00 +6°C° 0 mm 2 mps 748 mmHg 96%
    23:00 +6°C° 0 mm 2 mps 749 mmHg 97%

    Tomorrow, 19 September, Thursday

    Time Temperature Precipitation Wind Pressure Humidity
    00:00 +5°C° 0 mm 2 mps 749 mmHg 97%
    01:00 +5°C° 0 mm 2 mps 750 mmHg 96%
    02:00 +5°C° 0 mm 2 mps 750 mmHg 96%
    03:00 +4°C° 0 mm 2 mps 751 mmHg 95%
    04:00 +5°C° 0 mm 1 mps 751 mmHg 95%
    05:00 +4°C° 0 mm 1 mps 751 mmHg 95%
    06:00 +5°C° 0.1 mm 1 mps 752 mmHg 93%
    07:00 +6°C° 0.1 mm 1 mps 752 mmHg 91%
    08:00 +7°C° 0.1 mm 1 mps 753 mmHg 90%
    09:00 +7°C° 0.1 mm 1 mps 753 mmHg 85%
    10:00 +8°C° 0.1 mm 1 mps 753 mmHg 80%
    11:00 +9°C° 0.1 mm 1 mps 753 mmHg 75%
    12:00 +10°C° 0 mm 1 mps 753 mmHg 70%
    13:00 +10°C° 0 mm 1 mps 753 mmHg 66%
    14:00 +10°C° 0 mm 2 mps 753 mmHg 61%
    15:00 +11°C° 0 mm 1 mps 753 mmHg 64%
    16:00 +10°C° 0 mm 1 mps 753 mmHg 68%
    17:00 +10°C° 0 mm 1 mps 754 mmHg 71%
    18:00 +8°C° 0 mm 1 mps 754 mmHg 76%
    19:00 +7°C° 0 mm 1 mps 754 mmHg 80%
    20:00 +5°C° 0 mm 1 mps 754 mmHg 85%
    21:00 +5°C° 0 mm 1 mps 754 mmHg 86%
    22:00 +4°C° 0 mm 1 mps 754 mmHg 87%
    23:00 +4°C° 0 mm 1 mps 754 mmHg 87%

    Day after tomorrow, 20 September, Friday

    Time Temperature Precipitation Wind Pressure Humidity
    00:00 +4°C° 0 mm 1 mps 754 mmHg 87%
    01:00 +4°C° 0 mm 1 mps 754 mmHg 87%
    02:00 +4°C° 0 mm 1 mps 755 mmHg 87%
    03:00 +3°C° 0.1 mm 2 mps 755 mmHg 90%
    04:00 +3°C° 0.1 mm 2 mps 755 mmHg 93%
    05:00 +2°C° 0.1 mm 2 mps 755 mmHg 97%
    06:00 +2°C° 0 mm 3 mps 755 mmHg 92%
    07:00 +3°C° 0 mm 4 mps 755 mmHg 88%
    08:00 +4°C° 0 mm 4 mps 756 mmHg 84%
    09:00 +5°C° 0.1 mm 4 mps 756 mmHg 79%
    10:00 +6°C° 0.1 mm 5 mps 756 mmHg 73%
    11:00 +7°C° 0.1 mm 5 mps 756 mmHg 68%
    12:00 +7°C° 0.2 mm 5 mps 756 mmHg 65%
    13:00 +8°C° 0.2 mm 5 mps 756 mmHg 62%
    14:00 +8°C° 0.2 mm 5 mps 756 mmHg 59%
    15:00 +8°C° 0 mm 4 mps 756 mmHg 61%
    16:00 +8°C° 0 mm 3 mps 756 mmHg 62%
    17:00 +8°C° 0 mm 2 mps 756 mmHg 64%
    18:00 +6°C° 0 mm 2 mps 757 mmHg 66%
    19:00 +5°C° 0 mm 2 mps 757 mmHg 68%
    20:00 +4°C° 0 mm 2 mps 757 mmHg 70%
    21:00 +4°C° 0 mm 2 mps 757 mmHg 70%
    22:00 +4°C° 0 mm 2 mps 757 mmHg 70%
    23:00 +5°C° 0 mm 2 mps 757 mmHg 70%

    21 September, Saturday

    Time Temperature Precipitation Wind Pressure Humidity
    00:00 +5°C° 0.1 mm 2 mps 756 mmHg 74%
    01:00 +5°C° 0.1 mm 2 mps 756 mmHg 79%
    02:00 +5°C° 0.1 mm 2 mps 756 mmHg 84%
    03:00 +4°C° 0.3 mm 3 mps 755 mmHg 86%
    04:00 +4°C° 0.3 mm 3 mps 754 mmHg 88%
    05:00 +4°C° 0.3 mm 4 mps 753 mmHg 91%
    06:00 +5°C° 1 mm 4 mps 753 mmHg 93%
    07:00 +5°C° 1 mm 4 mps 752 mmHg 94%
    08:00 +5°C° 1 mm 4 mps 751 mmHg 96%
    09:00 +7°C° 0.4 mm 3 mps 751 mmHg 96%
    10:00 +8°C° 0.4 mm 3 mps 751 mmHg 97%
    11:00 +9°C° 0.4 mm 3 mps 750 mmHg 97%
    12:00 +10°C° 0.1 mm 4 mps 750 mmHg 94%
    13:00 +11°C° 0.1 mm 4 mps 750 mmHg 91%
    14:00 +12°C° 0.1 mm 5 mps 750 mmHg 88%
    15:00 +12°C° 0.3 mm 5 mps 749 mmHg 90%
    16:00 +12°C° 0.3 mm 5 mps 749 mmHg 91%
    17:00 +10°C° 0.3 mm 5 mps 748 mmHg 92%
    18:00 +11°C° 0 mm 6 mps 748 mmHg 91%
    19:00 +11°C° 0 mm 6 mps 748 mmHg 89%
    20:00 +11°C° 0 mm 6 mps 748 mmHg 88%
    21:00 +10°C° 0 mm 6 mps 748 mmHg 87%
    22:00 +10°C° 0 mm 6 mps 748 mmHg 86%
    23:00 +10°C° 0 mm 6 mps 748 mmHg 85%

    22 September, Sunday

    Time Temperature Precipitation Wind Pressure Humidity
    00:00 +10°C° 0.1 mm 6 mps 748 mmHg 85%
    01:00 +9°C° 0.1 mm 6 mps 749 mmHg 84%
    02:00 +8°C° 0.1 mm 6 mps 749 mmHg 84%
    03:00 +7°C° 0 mm 6 mps 750 mmHg 81%
    04:00 +5°C° 0 mm 5 mps 751 mmHg 79%
    05:00 +3°C° 0 mm 5 mps 752 mmHg 77%
    06:00 +3°C° 0 mm 5 mps 752 mmHg 75%
    07:00 +5°C° 0 mm 5 mps 753 mmHg 73%
    08:00 +5°C° 0 mm 5 mps 754 mmHg 71%
    09:00 +6°C° 0 mm 5 mps 755 mmHg 66%
    10:00 +7°C° 0 mm 5 mps 755 mmHg 61%
    11:00 +8°C° 0 mm 5 mps 756 mmHg 57%
    12:00 +8°C° 0 mm 5 mps 756 mmHg 56%
    13:00 +9°C° 0 mm 5 mps 756 mmHg 55%
    14:00 +10°C° 0 mm 4 mps 756 mmHg 54%
    15:00 +8°C° 0 mm 4 mps 756 mmHg 58%
    16:00 +9°C° 0 mm 3 mps 756 mmHg 62%
    17:00 +8°C° 0 mm 2 mps 757 mmHg 66%
    18:00 +7°C° 0 mm 2 mps 757 mmHg 68%
    19:00 +6°C° 0 mm 2 mps 757 mmHg 71%
    20:00 +5°C° 0 mm 1 mps 757 mmHg 74%
    21:00 +5°C° 0 mm 1 mps 757 mmHg 74%
    22:00 +5°C° 0 mm 1 mps 757 mmHg 74%
    23:00 +4°C° 0 mm 0 mps 757 mmHg 74%

    23 September, Monday

    Time Temperature Precipitation Wind Pressure Humidity
    00:00 +5°C° 0 mm 1 mps 757 mmHg 72%
    01:00 +6°C° 0 mm 1 mps 757 mmHg 71%
    02:00 +6°C° 0 mm 1 mps 757 mmHg 69%
    03:00 +6°C° 0 mm 1 mps 757 mmHg 70%
    04:00 +6°C° 0 mm 1 mps 757 mmHg 71%
    05:00 +6°C° 0 mm 1 mps 757 mmHg 71%
    06:00 +6°C° 0.3 mm 1 mps 757 mmHg 77%
    07:00 +5°C° 0.3 mm 1 mps 756 mmHg 82%
    08:00 +4°C° 0.3 mm 2 mps 756 mmHg 87%
    09:00 +4°C° 0.6 mm 2 mps 756 mmHg 89%
    10:00 +3°C° 0.6 mm 3 mps 755 mmHg 92%
    11:00 +3°C° 0.6 mm 3 mps 755 mmHg 94%
    12:00 +3°C° 1.1 mm 3 mps 754 mmHg 95%
    13:00 +3°C° 1.1 mm 3 mps 754 mmHg 96%
    14:00 +3°C° 1.1 mm 3 mps 753 mmHg 96%
    15:00 +2°C° 1.2 mm 3 mps 753 mmHg 96%
    16:00 +2°C° 1.2 mm 3 mps 752 mmHg 97%
    17:00 +2°C° 1.2 mm 3 mps 752 mmHg 97%
    18:00 +2°C° 0.7 mm 3 mps 752 mmHg 97%
    19:00 +2°C° 0.7 mm 3 mps 752 mmHg 97%
    20:00 +2°C° 0.7 mm 3 mps 751 mmHg 97%
    21:00 +1°C° 0.3 mm 4 mps 751 mmHg 97%
    22:00 +1°C° 0.3 mm 4 mps 751 mmHg 97%
    23:00 +1°C° 0.3 mm 4 mps 751 mmHg 97%
    Show more